Weather History for Porterville, CA

Change the Weather History Date:

Monday, August 26, 2013

  Actual Average Record
Temperature  
Mean Temperature 76 °F -  
Max Temperature 93 °F 95 °F 104 °F (2010)
Min Temperature 60 °F 61 °F 49 °F (1968)
Cooling Degree Days 12    
Growing Degree Days 26 (Base 50)    
Moisture  
Dew Point 44 °F    
Average Humidity 32    
Maximum Humidity 40    
Minimum Humidity 23    
Precipitation  
Precipitation 0.00 in - - ()
Sea Level Pressure  
Sea Level Pressure 29.91 in    
Wind  
Wind Speed 6 mph (WSW)    
Max Wind Speed 12 mph    
Max Gust Speed -    
Visibility 10 miles    
Events      
Averages and records for this station are not official NWS values.
T = Trace of Precipitation, MM = Missing Value Source: NWS Daily Summary

Daily Weather History Graph

Daily Weather History Graph

Search for Another Location

Airport:

Trip Planner

Search our weather history database for the weather conditions in past years. The results will help you decide how hot, cold, wet, or windy it might be!

Date:

Astronomy

Aug. 26, 2013 Rise Set
Actual Time 6:23 AM PDT 7:31 PM PDT
Civil Twilight 5:57 AM PDT 7:58 PM PDT
Nautical Twilight 5:25 AM PDT 8:29 PM PDT
Astronomical Twilight 4:52 AM PDT 9:02 PM PDT
Moon 10:58 PM PDT 12:16 PM PDT
Length of Visible Light 14h 01m
Length of Day
13h 08m
Waning Gibbous, 65% of the Moon is Illuminated
Aug 26
Waning Gibbous
Aug 28
Last Quarter
Sep 5
New
Sep 12
First Quarter
Sep 19
Full

Hourly Weather History & Observations

Time (PDT) Temp. Dew Point Humidity Pressure Visibility Wind Dir Wind Speed Gust Speed Precip Events Conditions
12:15 AM 69.8 °F 37.4 °F 31% 29.91 in 10.0 mi SE 6.9 mph - N/A   Clear
12:35 AM 68.0 °F 37.4 °F 33% 29.91 in 10.0 mi SSE 5.8 mph - N/A   Clear
12:55 AM 68.0 °F 37.4 °F 33% 29.91 in 10.0 mi SSE 6.9 mph - N/A   Clear
1:15 AM 68.0 °F 37.4 °F 33% 29.91 in 10.0 mi SE 5.8 mph - N/A   Clear
1:35 AM 68.0 °F 37.4 °F 33% 29.91 in 10.0 mi ESE 8.1 mph - N/A   Clear
1:55 AM 66.2 °F 37.4 °F 35% 29.90 in 10.0 mi ESE 9.2 mph - N/A   Clear
2:15 AM 68.0 °F 37.4 °F 33% 29.90 in 10.0 mi ESE 6.9 mph - N/A   Clear
2:35 AM 68.0 °F 37.4 °F 33% 29.90 in 10.0 mi Calm Calm - N/A   Clear
2:55 AM 66.2 °F 37.4 °F 35% 29.91 in 10.0 mi WSW 4.6 mph - N/A   Clear
3:15 AM 66.2 °F 37.4 °F 35% 29.91 in 10.0 mi SW 3.5 mph - N/A   Clear
3:35 AM 64.4 °F 35.6 °F 34% 29.91 in 10.0 mi SW 3.5 mph - N/A   Clear
3:55 AM 66.2 °F 37.4 °F 35% 29.92 in 10.0 mi SSW 5.8 mph - N/A   Clear
4:15 AM 64.4 °F 35.6 °F 34% 29.93 in 10.0 mi SW 4.6 mph - N/A   Clear
4:35 AM 64.4 °F 37.4 °F 37% 29.93 in 10.0 mi NW 3.5 mph - N/A   Clear
4:55 AM 64.4 °F 37.4 °F 37% 29.93 in 10.0 mi Calm Calm - N/A   Clear
5:15 AM 60.8 °F 35.6 °F 39% 29.93 in 10.0 mi Calm Calm - N/A   Clear
5:35 AM 60.8 °F 35.6 °F 39% 29.94 in 10.0 mi South 4.6 mph - N/A   Clear
5:55 AM 60.8 °F 33.8 °F 36% 29.95 in 10.0 mi SSE 5.8 mph - N/A   Clear
6:15 AM 60.8 °F 33.8 °F 36% 29.96 in 10.0 mi South 4.6 mph - N/A   Clear
6:35 AM 60.8 °F 33.8 °F 36% 29.97 in 10.0 mi South 4.6 mph - N/A   Clear
6:55 AM 60.8 °F 33.8 °F 36% 29.97 in 10.0 mi South 5.8 mph - N/A   Clear
7:15 AM 60.8 °F 35.6 °F 39% 29.98 in 10.0 mi South 4.6 mph - N/A   Clear
7:35 AM 62.6 °F 37.4 °F 39% 29.98 in 10.0 mi SE 5.8 mph - N/A   Clear
7:55 AM 64.4 °F 39.2 °F 40% 29.98 in 10.0 mi SSE 3.5 mph - N/A   Clear
8:15 AM 66.2 °F 41.0 °F 40% 29.98 in 10.0 mi South 4.6 mph - N/A   Clear
8:35 AM 68.0 °F 41.0 °F 37% 29.98 in 10.0 mi SW 4.6 mph - N/A   Clear
8:55 AM 69.8 °F 42.8 °F 38% 29.99 in 10.0 mi SSW 6.9 mph - N/A   Clear
9:15 AM 71.6 °F 42.8 °F 35% 29.99 in 10.0 mi SSW 6.9 mph - N/A   Clear
9:35 AM 71.6 °F 42.8 °F 35% 29.99 in 10.0 mi South 5.8 mph - N/A   Clear
9:55 AM 73.4 °F 42.8 °F 33% 29.99 in 10.0 mi SSW 8.1 mph - N/A   Clear
10:15 AM 75.2 °F 44.6 °F 34% 29.99 in 10.0 mi SW 10.4 mph - N/A   Clear
10:35 AM 75.2 °F 42.8 °F 31% 29.98 in 10.0 mi SSW 4.6 mph - N/A   Clear
10:55 AM 78.8 °F 44.6 °F 30% 29.98 in 10.0 mi SW 6.9 mph - N/A   Clear
11:15 AM 78.8 °F 44.6 °F 30% 29.97 in 10.0 mi SSW 8.1 mph - N/A   Clear
11:35 AM 78.8 °F 46.4 °F 32% 29.96 in 10.0 mi West 4.6 mph - N/A   Clear
11:55 AM 80.6 °F 46.4 °F 30% 29.96 in 10.0 mi West 3.5 mph - N/A   Clear
12:15 PM 82.4 °F 46.4 °F 28% 29.95 in 10.0 mi WSW 3.5 mph - N/A   Clear
12:35 PM 82.4 °F 46.4 °F 28% 29.94 in 10.0 mi WSW 6.9 mph - N/A   Clear
12:55 PM 84.2 °F 48.2 °F 29% 29.93 in 10.0 mi NNW 6.9 mph - N/A   Clear
1:15 PM 84.2 °F 50.0 °F 30% 29.92 in 10.0 mi West 3.5 mph - N/A   Clear
1:35 PM 84.2 °F 48.2 °F 29% 29.92 in 10.0 mi WSW 3.5 mph - N/A   Clear
1:55 PM 86.0 °F 48.2 °F 27% 29.91 in 10.0 mi WNW 5.8 mph - N/A   Clear
2:15 PM 87.8 °F 48.2 °F 25% 29.90 in 10.0 mi NW 9.2 mph - N/A   Clear
2:35 PM 87.8 °F 48.2 °F 25% 29.89 in 10.0 mi NW 5.8 mph - N/A   Clear
2:55 PM 89.6 °F 51.8 °F 27% 29.88 in 10.0 mi NW 10.4 mph - N/A   Clear
3:15 PM 89.6 °F 48.2 °F 24% 29.87 in 10.0 mi West 5.8 mph - N/A   Clear
3:35 PM 91.4 °F 50.0 °F 24% 29.87 in 10.0 mi NW 10.4 mph - N/A   Clear
3:55 PM 91.4 °F 48.2 °F 23% 29.86 in 10.0 mi NNW 9.2 mph - N/A   Clear
4:15 PM 91.4 °F 48.2 °F 23% 29.85 in 10.0 mi NW 9.2 mph - N/A   Clear
4:35 PM 91.4 °F 50.0 °F 24% 29.85 in 10.0 mi NW 9.2 mph - N/A   Clear
4:55 PM 93.2 °F 51.8 °F 24% 29.84 in 10.0 mi NNW 11.5 mph - N/A   Clear
5:15 PM 91.4 °F 51.8 °F 26% 29.84 in 10.0 mi WNW 10.4 mph - N/A   Clear
5:35 PM 91.4 °F 51.8 °F 26% 29.83 in 10.0 mi NW 11.5 mph - N/A   Clear
5:55 PM 91.4 °F 50.0 °F 24% 29.83 in 10.0 mi NW 11.5 mph - N/A   Clear
6:15 PM 91.4 °F 51.8 °F 26% 29.82 in 10.0 mi NW 10.4 mph - N/A   Clear
6:35 PM 89.6 °F 51.8 °F 27% 29.82 in 10.0 mi NW 8.1 mph - N/A   Clear
6:55 PM 89.6 °F 50.0 °F 26% 29.82 in 10.0 mi WNW 5.8 mph - N/A   Clear
7:15 PM 87.8 °F 50.0 °F 27% 29.82 in 10.0 mi NW 5.8 mph - N/A   Clear
7:35 PM 86.0 °F 50.0 °F 29% 29.83 in 10.0 mi WNW 5.8 mph - N/A   Clear
7:55 PM 84.2 °F 48.2 °F 29% 29.83 in 10.0 mi West 4.6 mph - N/A   Clear
8:15 PM 82.4 °F 48.2 °F 30% 29.83 in 10.0 mi West 4.6 mph - N/A   Clear
8:35 PM 80.6 °F 48.2 °F 32% 29.84 in 10.0 mi WSW 3.5 mph - N/A   Clear
8:55 PM 78.8 °F 46.4 °F 32% 29.85 in 10.0 mi Calm Calm - N/A   Clear
9:15 PM 78.8 °F 46.4 °F 32% 29.85 in 10.0 mi Calm Calm - N/A   Clear
9:35 PM 75.2 °F 46.4 °F 36% 29.86 in 10.0 mi SE 3.5 mph - N/A   Clear
9:55 PM 75.2 °F 46.4 °F 36% 29.86 in 10.0 mi SE 4.6 mph - N/A   Clear
10:15 PM 75.2 °F 44.6 °F 34% 29.87 in 10.0 mi Calm Calm - N/A   Clear
10:35 PM 75.2 °F 44.6 °F 34% 29.88 in 10.0 mi Calm Calm - N/A   Clear
10:55 PM 75.2 °F 44.6 °F 34% 29.88 in 10.0 mi Calm Calm - N/A   Clear
11:15 PM 75.2 °F 44.6 °F 34% 29.88 in 10.0 mi WNW 3.5 mph - N/A   Clear
11:35 PM 75.2 °F 44.6 °F 34% 29.88 in 10.0 mi NNW 6.9 mph - N/A   Clear
11:55 PM 75.2 °F 44.6 °F 34% 29.88 in 10.0 mi North 3.5 mph - N/A   Clear